Location: Complexul Astronomic Baia Mare
(47.6577°N, 23.5639°E)
Time: 00:04:59
(UTC+02:00)

ISS - Pass Details

Date: 08 March 2017
Orbit: 399 x 409 km, 51.6° (Epoch: 25 March)

Event Time Altitude Azimuth Distance (km) Brightness Sun altitude
Exits shadow 05:40:42 24° 255° (WSW) 897 -2.7 -13.0°
Maximum altitude 05:42:32 76° 338° (NNW) 428 -3.8 -12.7°
Drops below altitude 10° 05:45:52 10° 65° (ENE) 1,480 0.3 -12.1°
Sets 05:47:58 0° 67° (ENE) 2,344 1.6 -11.7°
